Year,Month,Day,Hour,Minute,Value (Times are PST for temperature in C)
2018,06,17,00,00,17.90
2018,06,17,00,01,17.80
2018,06,17,00,02,17.70
2018,06,17,00,03,17.70
2018,06,17,00,04,17.60
2018,06,17,00,05,17.50
2018,06,17,00,06,17.50
2018,06,17,00,07,17.40
2018,06,17,00,08,17.40
2018,06,17,00,09,17.30
2018,06,17,00,10,17.30
2018,06,17,00,11,17.30
2018,06,17,00,12,17.20
2018,06,17,00,13,17.20
2018,06,17,00,14,17.20
2018,06,17,00,15,17.10
2018,06,17,00,16,17.10
2018,06,17,00,17,17.10
2018,06,17,00,18,17.10
2018,06,17,00,19,17.00
2018,06,17,00,20,17.00
2018,06,17,00,21,17.00
2018,06,17,00,22,16.90
2018,06,17,00,23,16.90
2018,06,17,00,24,16.90
2018,06,17,00,25,16.90
2018,06,17,00,26,16.90
2018,06,17,00,27,16.90
2018,06,17,00,28,16.90
2018,06,17,00,29,16.80
2018,06,17,00,30,16.80
2018,06,17,00,31,16.80
2018,06,17,00,32,16.80
2018,06,17,00,33,16.80
2018,06,17,00,34,16.70
2018,06,17,00,35,16.70
2018,06,17,00,36,16.70
2018,06,17,00,37,16.70
2018,06,17,00,38,16.70
2018,06,17,00,39,16.70
2018,06,17,00,40,16.70
2018,06,17,00,41,16.70
2018,06,17,00,42,16.70
2018,06,17,00,43,16.70
2018,06,17,00,44,16.70
2018,06,17,00,45,16.70
2018,06,17,00,46,16.70
2018,06,17,00,47,16.80
2018,06,17,00,48,16.80
2018,06,17,00,49,16.80
2018,06,17,00,50,16.80
2018,06,17,00,51,16.80
2018,06,17,00,52,16.80
2018,06,17,00,53,16.80
2018,06,17,00,54,16.80
2018,06,17,00,55,16.90
2018,06,17,00,56,16.90
2018,06,17,00,57,17.00
2018,06,17,00,58,17.00
2018,06,17,00,59,17.10
2018,06,17,01,00,17.20
2018,06,17,01,01,17.20
2018,06,17,01,02,17.30
2018,06,17,01,03,17.30
2018,06,17,01,04,17.40
2018,06,17,01,05,17.40
2018,06,17,01,06,17.40
2018,06,17,01,07,17.40
2018,06,17,01,08,17.40
2018,06,17,01,09,17.40
2018,06,17,01,10,17.40
2018,06,17,01,11,17.40
2018,06,17,01,12,17.30
2018,06,17,01,13,17.30
2018,06,17,01,14,17.30
2018,06,17,01,15,17.20
2018,06,17,01,16,17.20
2018,06,17,01,17,17.10
2018,06,17,01,18,17.10
2018,06,17,01,19,17.00
2018,06,17,01,20,16.90
2018,06,17,01,21,16.90
2018,06,17,01,22,16.80
2018,06,17,01,23,16.80
2018,06,17,01,24,16.80
2018,06,17,01,25,16.80
2018,06,17,01,26,16.70
2018,06,17,01,27,16.70
2018,06,17,01,28,16.70
2018,06,17,01,29,16.70
2018,06,17,01,30,16.70
2018,06,17,01,31,16.70
2018,06,17,01,32,16.70
2018,06,17,01,33,16.70
2018,06,17,01,34,16.60
2018,06,17,01,35,16.60
2018,06,17,01,36,16.60
2018,06,17,01,37,16.50
2018,06,17,01,38,16.50
2018,06,17,01,39,16.50
2018,06,17,01,40,16.40
2018,06,17,01,41,16.40
2018,06,17,01,42,16.30
2018,06,17,01,43,16.30
2018,06,17,01,44,16.30
2018,06,17,01,45,16.20
2018,06,17,01,46,16.20
2018,06,17,01,47,16.20
2018,06,17,01,48,16.10
2018,06,17,01,49,16.10
2018,06,17,01,50,16.10
2018,06,17,01,51,16.10
2018,06,17,01,52,16.20
2018,06,17,01,53,16.20
2018,06,17,01,54,16.20
2018,06,17,01,55,16.20
2018,06,17,01,56,16.30
2018,06,17,01,57,16.30
2018,06,17,01,58,16.30
2018,06,17,01,59,16.30
2018,06,17,02,00,16.20
2018,06,17,02,01,16.20
2018,06,17,02,02,16.10
2018,06,17,02,03,16.10
2018,06,17,02,04,16.00
2018,06,17,02,05,15.90
2018,06,17,02,06,15.80
2018,06,17,02,07,15.80
2018,06,17,02,08,15.70
2018,06,17,02,09,15.70
2018,06,17,02,10,15.60
2018,06,17,02,11,15.60
2018,06,17,02,12,15.50
2018,06,17,02,13,15.40
2018,06,17,02,14,15.40
2018,06,17,02,15,15.40
2018,06,17,02,16,15.30
2018,06,17,02,17,15.30
2018,06,17,02,18,15.30
2018,06,17,02,19,15.20
2018,06,17,02,20,15.20
2018,06,17,02,21,15.20
2018,06,17,02,22,15.20
2018,06,17,02,23,15.10
2018,06,17,02,24,15.10
2018,06,17,02,25,15.10
2018,06,17,02,26,15.10
2018,06,17,02,27,15.10
2018,06,17,02,28,15.10
2018,06,17,02,29,15.20
2018,06,17,02,30,15.20
2018,06,17,02,31,15.20
2018,06,17,02,32,15.20
2018,06,17,02,33,15.20
2018,06,17,02,34,15.30
2018,06,17,02,35,15.30
2018,06,17,02,36,15.30
2018,06,17,02,37,15.30
2018,06,17,02,38,15.30
2018,06,17,02,39,15.30
2018,06,17,02,40,15.30
2018,06,17,02,41,15.30
2018,06,17,02,42,15.30
2018,06,17,02,43,15.30
2018,06,17,02,44,15.40
2018,06,17,02,45,15.40
2018,06,17,02,46,15.40
2018,06,17,02,47,15.40
2018,06,17,02,48,15.50
2018,06,17,02,49,15.50
2018,06,17,02,50,15.40
2018,06,17,02,51,15.40
2018,06,17,02,52,15.40
2018,06,17,02,53,15.40
2018,06,17,02,54,15.40
2018,06,17,02,55,15.40
2018,06,17,02,56,15.30
2018,06,17,02,57,15.30
2018,06,17,02,58,15.30
2018,06,17,02,59,15.30
2018,06,17,03,00,15.20
2018,06,17,03,01,15.20
2018,06,17,03,02,15.20
2018,06,17,03,03,15.20
2018,06,17,03,04,15.20
2018,06,17,03,05,15.10
2018,06,17,03,06,15.10
2018,06,17,03,07,15.10
2018,06,17,03,08,15.10
2018,06,17,03,09,15.10
2018,06,17,03,10,15.10
2018,06,17,03,11,15.00
2018,06,17,03,12,15.00
2018,06,17,03,13,15.00
2018,06,17,03,14,15.00
2018,06,17,03,15,14.90
2018,06,17,03,16,14.90
2018,06,17,03,17,14.90
2018,06,17,03,18,14.80
2018,06,17,03,19,14.80
2018,06,17,03,20,14.80
2018,06,17,03,21,14.70
2018,06,17,03,22,14.70
2018,06,17,03,23,14.70
2018,06,17,03,24,14.70
2018,06,17,03,25,14.60
2018,06,17,03,26,14.60
2018,06,17,03,27,14.60
2018,06,17,03,28,14.50
2018,06,17,03,29,14.50
2018,06,17,03,30,14.40
2018,06,17,03,31,14.40
2018,06,17,03,32,14.30
2018,06,17,03,33,14.30
2018,06,17,03,34,14.30
2018,06,17,03,35,14.20
2018,06,17,03,36,14.20
2018,06,17,03,37,14.20
2018,06,17,03,38,14.20
2018,06,17,03,39,14.20
2018,06,17,03,40,14.10
2018,06,17,03,41,14.10
2018,06,17,03,42,14.10
2018,06,17,03,43,14.00
2018,06,17,03,44,14.00
2018,06,17,03,45,14.00
2018,06,17,03,46,14.00
2018,06,17,03,47,13.90
2018,06,17,03,48,13.90
2018,06,17,03,49,13.90
2018,06,17,03,50,13.90
2018,06,17,03,51,13.90
2018,06,17,03,52,13.90
2018,06,17,03,53,13.80
2018,06,17,03,54,13.80
2018,06,17,03,55,13.80
2018,06,17,03,56,13.80
2018,06,17,03,57,13.80
2018,06,17,03,58,13.80
2018,06,17,03,59,13.80
2018,06,17,04,00,13.80
2018,06,17,04,01,13.80
2018,06,17,04,02,13.80
2018,06,17,04,03,13.80
2018,06,17,04,04,13.80
2018,06,17,04,05,13.80
2018,06,17,04,06,13.80
2018,06,17,04,07,13.80
2018,06,17,04,08,13.70
2018,06,17,04,09,13.70
2018,06,17,04,10,13.70
2018,06,17,04,11,13.70
2018,06,17,04,12,13.70
2018,06,17,04,13,13.70
2018,06,17,04,14,13.70
2018,06,17,04,15,13.80
2018,06,17,04,16,13.80
2018,06,17,04,17,13.80
2018,06,17,04,18,13.80
2018,06,17,04,19,13.80
2018,06,17,04,20,13.80
2018,06,17,04,21,13.80
2018,06,17,04,22,13.80
2018,06,17,04,23,13.80
2018,06,17,04,24,13.80
2018,06,17,04,25,13.70
2018,06,17,04,26,13.70
2018,06,17,04,27,13.70
2018,06,17,04,28,13.70
2018,06,17,04,29,13.70
2018,06,17,04,30,13.60
2018,06,17,04,31,13.60
2018,06,17,04,32,13.60
2018,06,17,04,33,13.50
2018,06,17,04,34,13.50
2018,06,17,04,35,13.40
2018,06,17,04,36,13.40
2018,06,17,04,37,13.40
2018,06,17,04,38,13.30
2018,06,17,04,39,13.30
2018,06,17,04,40,13.30
2018,06,17,04,41,13.30
2018,06,17,04,42,13.30
2018,06,17,04,43,13.30
2018,06,17,04,44,13.30
2018,06,17,04,45,13.30
2018,06,17,04,46,13.30
2018,06,17,04,47,13.30
2018,06,17,04,48,13.20
2018,06,17,04,49,13.20
2018,06,17,04,50,13.20
2018,06,17,04,51,13.20
2018,06,17,04,52,13.20
2018,06,17,04,53,13.10
2018,06,17,04,54,13.10
2018,06,17,04,55,13.10
2018,06,17,04,56,13.10
2018,06,17,04,57,13.10
2018,06,17,04,58,13.10
2018,06,17,04,59,13.10
2018,06,17,05,00,13.10
2018,06,17,05,01,13.10
2018,06,17,05,02,13.10
2018,06,17,05,03,13.10
2018,06,17,05,04,13.10
2018,06,17,05,05,13.10
2018,06,17,05,06,13.10
2018,06,17,05,07,13.10
2018,06,17,05,08,13.10
2018,06,17,05,09,13.10
2018,06,17,05,10,13.10
2018,06,17,05,11,13.10
2018,06,17,05,12,13.10
2018,06,17,05,13,13.10
2018,06,17,05,14,13.00
2018,06,17,05,15,13.00
2018,06,17,05,16,12.90
2018,06,17,05,17,12.90
2018,06,17,05,18,12.90
2018,06,17,05,19,12.90
2018,06,17,05,20,12.90
2018,06,17,05,21,12.90
2018,06,17,05,22,12.90
2018,06,17,05,23,12.90
2018,06,17,05,24,12.90
2018,06,17,05,25,12.90
2018,06,17,05,26,12.90
2018,06,17,05,27,12.90
2018,06,17,05,28,12.90
2018,06,17,05,29,12.90
2018,06,17,05,30,12.90
2018,06,17,05,31,12.90
2018,06,17,05,32,12.90
2018,06,17,05,33,12.90
2018,06,17,05,34,12.90
2018,06,17,05,35,12.90
2018,06,17,05,36,12.90
2018,06,17,05,37,12.90
2018,06,17,05,38,12.90
2018,06,17,05,39,12.90
2018,06,17,05,40,12.90
2018,06,17,05,41,12.90
2018,06,17,05,42,12.90
2018,06,17,05,43,12.90
2018,06,17,05,44,12.90
2018,06,17,05,45,12.90
2018,06,17,05,46,12.90
2018,06,17,05,47,12.90
2018,06,17,05,48,12.90
2018,06,17,05,49,12.90
2018,06,17,05,50,12.90
2018,06,17,05,51,12.90
2018,06,17,05,52,12.90
2018,06,17,05,53,12.90
2018,06,17,05,54,12.90
2018,06,17,05,55,12.90
2018,06,17,05,56,12.90
2018,06,17,05,57,12.90
2018,06,17,05,58,12.90
2018,06,17,05,59,12.90
2018,06,17,06,00,13.00
2018,06,17,06,01,13.00
2018,06,17,06,02,13.00
2018,06,17,06,03,13.10
2018,06,17,06,04,13.10
2018,06,17,06,05,13.10
2018,06,17,06,06,13.10
2018,06,17,06,07,13.10
2018,06,17,06,08,13.10
2018,06,17,06,09,13.10
2018,06,17,06,10,13.10
2018,06,17,06,11,13.10
2018,06,17,06,12,13.10
2018,06,17,06,13,13.20
2018,06,17,06,14,13.20
2018,06,17,06,15,13.20
2018,06,17,06,16,13.20
2018,06,17,06,17,13.20
2018,06,17,06,18,13.20
2018,06,17,06,19,13.20
2018,06,17,06,20,13.20
2018,06,17,06,21,13.30
2018,06,17,06,22,13.30
2018,06,17,06,23,13.30
2018,06,17,06,24,13.30
2018,06,17,06,25,13.40
2018,06,17,06,26,13.40
2018,06,17,06,27,13.40
2018,06,17,06,28,13.50
2018,06,17,06,29,13.50
2018,06,17,06,30,13.60
2018,06,17,06,31,13.60
2018,06,17,06,32,13.60
2018,06,17,06,33,13.70
2018,06,17,06,34,13.70
2018,06,17,06,35,13.70
2018,06,17,06,36,13.70
2018,06,17,06,37,13.70
2018,06,17,06,38,13.70
2018,06,17,06,39,13.80
2018,06,17,06,40,13.80
2018,06,17,06,41,13.80
2018,06,17,06,42,13.80
2018,06,17,06,43,13.90
2018,06,17,06,44,13.90
2018,06,17,06,45,13.90
2018,06,17,06,46,13.90
2018,06,17,06,47,13.90
2018,06,17,06,48,14.00
2018,06,17,06,49,14.00
2018,06,17,06,50,14.10
2018,06,17,06,51,14.10
2018,06,17,06,52,14.20
2018,06,17,06,53,14.20
2018,06,17,06,54,14.20
2018,06,17,06,55,14.30
2018,06,17,06,56,14.30
2018,06,17,06,57,14.40
2018,06,17,06,58,14.40
2018,06,17,06,59,14.50
2018,06,17,07,00,14.50
2018,06,17,07,01,14.60
2018,06,17,07,02,14.70
2018,06,17,07,03,14.70
2018,06,17,07,04,14.80
2018,06,17,07,05,14.80
2018,06,17,07,06,14.80
2018,06,17,07,07,14.90
2018,06,17,07,08,14.90
2018,06,17,07,09,15.00
2018,06,17,07,10,15.00
2018,06,17,07,11,15.10
2018,06,17,07,12,15.20
2018,06,17,07,13,15.20
2018,06,17,07,14,15.30
2018,06,17,07,15,15.30
2018,06,17,07,16,15.40
2018,06,17,07,17,15.50
2018,06,17,07,18,15.60
2018,06,17,07,19,15.60
2018,06,17,07,20,15.70
2018,06,17,07,21,15.80
2018,06,17,07,22,15.80
2018,06,17,07,23,15.90
2018,06,17,07,24,15.90
2018,06,17,07,25,15.90
2018,06,17,07,26,16.00
2018,06,17,07,27,16.00
2018,06,17,07,28,16.10
2018,06,17,07,29,16.20
2018,06,17,07,30,16.20
2018,06,17,07,31,16.30
2018,06,17,07,32,16.30
2018,06,17,07,33,16.40
2018,06,17,07,34,16.50
2018,06,17,07,35,16.50
2018,06,17,07,36,16.60
2018,06,17,07,37,16.70
2018,06,17,07,38,16.70
2018,06,17,07,39,16.80
2018,06,17,07,40,16.90
2018,06,17,07,41,16.90
2018,06,17,07,42,17.00
2018,06,17,07,43,17.00
2018,06,17,07,44,17.10
2018,06,17,07,45,17.20
2018,06,17,07,46,17.20
2018,06,17,07,47,17.30
2018,06,17,07,48,17.30
2018,06,17,07,49,17.40
2018,06,17,07,50,17.50
2018,06,17,07,51,17.60
2018,06,17,07,52,17.80
2018,06,17,07,53,17.90
2018,06,17,07,54,18.00
2018,06,17,07,55,18.20
2018,06,17,07,56,18.30
2018,06,17,07,57,18.50
2018,06,17,07,58,18.60
2018,06,17,07,59,18.70
2018,06,17,08,00,18.80
2018,06,17,08,01,18.90
2018,06,17,08,02,19.00
2018,06,17,08,03,19.10
2018,06,17,08,04,19.20
2018,06,17,08,05,19.30
2018,06,17,08,06,19.40
2018,06,17,08,07,19.50
2018,06,17,08,08,19.50
2018,06,17,08,09,19.60
2018,06,17,08,10,19.70
2018,06,17,08,11,19.80
2018,06,17,08,12,19.90
2018,06,17,08,13,20.00
2018,06,17,08,14,20.10
2018,06,17,08,15,20.20
2018,06,17,08,16,20.40
2018,06,17,08,17,20.50
2018,06,17,08,18,20.60
2018,06,17,08,19,20.70
2018,06,17,08,20,20.80
2018,06,17,08,21,20.80
2018,06,17,08,22,20.90
2018,06,17,08,23,21.00
2018,06,17,08,24,21.00
2018,06,17,08,25,21.10
2018,06,17,08,26,21.20
2018,06,17,08,27,21.20
2018,06,17,08,28,21.30
2018,06,17,08,29,21.30
2018,06,17,08,30,21.40
2018,06,17,08,31,21.40
2018,06,17,08,32,21.50
2018,06,17,08,33,21.50
2018,06,17,08,34,21.60
2018,06,17,08,35,21.60
2018,06,17,08,36,21.70
2018,06,17,08,37,21.80
2018,06,17,08,38,21.80
2018,06,17,08,39,21.90
2018,06,17,08,40,21.90
2018,06,17,08,41,22.00
2018,06,17,08,42,22.00
2018,06,17,08,43,22.10
2018,06,17,08,44,22.20
2018,06,17,08,45,22.20
2018,06,17,08,46,22.30
2018,06,17,08,47,22.30
2018,06,17,08,48,22.30
2018,06,17,08,49,22.30
2018,06,17,08,50,22.30
2018,06,17,08,51,22.30
2018,06,17,08,52,22.40
2018,06,17,08,53,22.40
2018,06,17,08,54,22.40
2018,06,17,08,55,22.40
2018,06,17,08,56,22.40
2018,06,17,08,57,22.40
2018,06,17,08,58,22.50
2018,06,17,08,59,22.50
2018,06,17,09,00,22.60
2018,06,17,09,01,22.60
2018,06,17,09,02,22.60
2018,06,17,09,03,22.60
2018,06,17,09,04,22.60
2018,06,17,09,05,22.50
2018,06,17,09,06,22.50
2018,06,17,09,07,22.40
2018,06,17,09,08,22.40
2018,06,17,09,09,22.50
2018,06,17,09,10,22.50
2018,06,17,09,11,22.50
2018,06,17,09,12,22.50
2018,06,17,09,13,22.60
2018,06,17,09,14,22.60
2018,06,17,09,15,22.60
2018,06,17,09,16,22.60
2018,06,17,09,17,22.70
2018,06,17,09,18,22.70
2018,06,17,09,19,22.80
2018,06,17,09,20,22.80
2018,06,17,09,21,22.80
2018,06,17,09,22,22.90
2018,06,17,09,23,22.90
2018,06,17,09,24,22.90
2018,06,17,09,25,22.90
2018,06,17,09,26,22.90
2018,06,17,09,27,22.90
2018,06,17,09,28,22.90
2018,06,17,09,29,22.90
2018,06,17,09,30,23.00
2018,06,17,09,31,23.00
2018,06,17,09,32,23.00
2018,06,17,09,33,23.00
2018,06,17,09,34,23.10
2018,06,17,09,35,23.10
2018,06,17,09,36,23.10
2018,06,17,09,37,23.20
2018,06,17,09,38,23.20
2018,06,17,09,39,23.30
2018,06,17,09,40,23.30
2018,06,17,09,41,23.40
2018,06,17,09,42,23.40
2018,06,17,09,43,23.50
2018,06,17,09,44,23.50
2018,06,17,09,45,23.60
2018,06,17,09,46,23.60
2018,06,17,09,47,23.70
2018,06,17,09,48,23.70
2018,06,17,09,49,23.80
2018,06,17,09,50,23.80
2018,06,17,09,51,23.80
2018,06,17,09,52,23.80
2018,06,17,09,53,23.80
2018,06,17,09,54,23.80
2018,06,17,09,55,23.80
2018,06,17,09,56,23.90
2018,06,17,09,57,23.90
2018,06,17,09,58,24.00
2018,06,17,09,59,24.00
2018,06,17,10,00,24.00
2018,06,17,10,01,24.10
2018,06,17,10,02,24.10
2018,06,17,10,03,24.10
2018,06,17,10,04,24.10
2018,06,17,10,05,24.20
2018,06,17,10,06,24.20
2018,06,17,10,07,24.20
2018,06,17,10,08,24.20
2018,06,17,10,09,24.20
2018,06,17,10,10,24.20
2018,06,17,10,11,24.10
2018,06,17,10,12,24.10
2018,06,17,10,13,24.10
2018,06,17,10,14,24.10
2018,06,17,10,15,24.10
2018,06,17,10,16,24.10
2018,06,17,10,17,24.10
2018,06,17,10,18,24.20
2018,06,17,10,19,24.20
2018,06,17,10,20,24.20
2018,06,17,10,21,24.20
2018,06,17,10,22,24.20
2018,06,17,10,23,24.20
2018,06,17,10,24,24.30
2018,06,17,10,25,24.30
2018,06,17,10,26,24.30
2018,06,17,10,27,24.30
2018,06,17,10,28,24.30
2018,06,17,10,29,24.30
2018,06,17,10,30,24.30
2018,06,17,10,31,24.40
2018,06,17,10,32,24.40
2018,06,17,10,33,24.50
2018,06,17,10,34,24.50
2018,06,17,10,35,24.60
2018,06,17,10,36,24.70
2018,06,17,10,37,24.70
2018,06,17,10,38,24.80
2018,06,17,10,39,24.80
2018,06,17,10,40,24.80
2018,06,17,10,41,24.90
2018,06,17,10,42,24.90
2018,06,17,10,43,24.90
2018,06,17,10,44,24.90
2018,06,17,10,45,24.90
2018,06,17,10,46,24.90
2018,06,17,10,47,24.90
2018,06,17,10,48,24.90
2018,06,17,10,49,24.90
2018,06,17,10,50,24.90
2018,06,17,10,51,24.90
2018,06,17,10,52,25.00
2018,06,17,10,53,25.00
2018,06,17,10,54,25.00
2018,06,17,10,55,25.00
2018,06,17,10,56,25.10
2018,06,17,10,57,25.10
2018,06,17,10,58,25.10
2018,06,17,10,59,25.10
2018,06,17,11,00,25.10
2018,06,17,11,01,25.10
2018,06,17,11,02,25.10
2018,06,17,11,03,25.20
2018,06,17,11,04,25.20
2018,06,17,11,05,25.20
2018,06,17,11,06,25.20
2018,06,17,11,07,25.20
2018,06,17,11,08,25.20
2018,06,17,11,09,25.30
2018,06,17,11,10,25.30
2018,06,17,11,11,25.30
2018,06,17,11,12,25.40
2018,06,17,11,13,25.40
2018,06,17,11,14,25.40
2018,06,17,11,15,25.50
2018,06,17,11,16,25.60
2018,06,17,11,17,25.60
2018,06,17,11,18,25.70
2018,06,17,11,19,25.80
2018,06,17,11,20,25.80
2018,06,17,11,21,25.80
2018,06,17,11,22,25.80
2018,06,17,11,23,25.80
2018,06,17,11,24,25.80
2018,06,17,11,25,25.80
2018,06,17,11,26,25.80
2018,06,17,11,27,25.80
2018,06,17,11,28,25.80
2018,06,17,11,29,25.80
2018,06,17,11,30,25.80
2018,06,17,11,31,25.80
2018,06,17,11,32,25.80
2018,06,17,11,33,25.80
2018,06,17,11,34,25.80
2018,06,17,11,35,25.80
2018,06,17,11,36,25.80
2018,06,17,11,37,25.90
2018,06,17,11,38,25.90
2018,06,17,11,39,25.90
2018,06,17,11,40,26.00
2018,06,17,11,41,26.00
2018,06,17,11,42,26.10
2018,06,17,11,43,26.10
2018,06,17,11,44,26.10
2018,06,17,11,45,26.10
2018,06,17,11,46,26.20
2018,06,17,11,47,26.20
2018,06,17,11,48,26.20
2018,06,17,11,49,26.30
2018,06,17,11,50,26.30
2018,06,17,11,51,26.40
2018,06,17,11,52,26.40
2018,06,17,11,53,26.50
2018,06,17,11,54,26.50
2018,06,17,11,55,26.60
2018,06,17,11,56,26.60
2018,06,17,11,57,26.70
2018,06,17,11,58,26.70
2018,06,17,11,59,26.70
2018,06,17,12,00,26.70
2018,06,17,12,01,26.80
2018,06,17,12,02,26.80
2018,06,17,12,03,26.90
2018,06,17,12,04,26.90
2018,06,17,12,05,27.00
2018,06,17,12,06,27.10
2018,06,17,12,07,27.10
2018,06,17,12,08,27.20
2018,06,17,12,09,27.20
2018,06,17,12,10,27.20
2018,06,17,12,11,27.30
2018,06,17,12,12,27.30
2018,06,17,12,13,27.30
2018,06,17,12,14,27.30
2018,06,17,12,15,27.20
2018,06,17,12,16,27.20
2018,06,17,12,17,27.20
2018,06,17,12,18,27.20
2018,06,17,12,19,27.20
2018,06,17,12,20,27.20
2018,06,17,12,21,27.20
2018,06,17,12,22,27.20
2018,06,17,12,23,27.20
2018,06,17,12,24,27.20
2018,06,17,12,25,27.20
2018,06,17,12,26,27.20
2018,06,17,12,27,27.20
2018,06,17,12,28,27.20
2018,06,17,12,29,27.20
2018,06,17,12,30,27.30
2018,06,17,12,31,27.30
2018,06,17,12,32,27.40
2018,06,17,12,33,27.40
2018,06,17,12,34,27.40
2018,06,17,12,35,27.40
2018,06,17,12,36,27.50
2018,06,17,12,37,27.60
2018,06,17,12,38,27.50
2018,06,17,12,39,27.50
2018,06,17,12,40,27.40
2018,06,17,12,41,27.40
2018,06,17,12,42,27.40
2018,06,17,12,43,27.40
2018,06,17,12,44,27.30
2018,06,17,12,45,27.30
2018,06,17,12,46,27.30
2018,06,17,12,47,27.30
2018,06,17,12,48,27.40
2018,06,17,12,49,27.40
2018,06,17,12,50,27.50
2018,06,17,12,51,27.50
2018,06,17,12,52,27.60
2018,06,17,12,53,27.70
2018,06,17,12,54,27.70
2018,06,17,12,55,27.80
2018,06,17,12,56,27.80
2018,06,17,12,57,27.90
2018,06,17,12,58,27.90
2018,06,17,12,59,28.00
2018,06,17,13,00,28.00
2018,06,17,13,01,28.10
2018,06,17,13,02,28.10
2018,06,17,13,03,28.10
2018,06,17,13,04,28.10
2018,06,17,13,05,28.20
2018,06,17,13,06,28.20
2018,06,17,13,07,28.20
2018,06,17,13,08,28.20
2018,06,17,13,09,28.20
2018,06,17,13,10,28.10
2018,06,17,13,11,28.10
2018,06,17,13,12,28.00
2018,06,17,13,13,28.00
2018,06,17,13,14,27.90
2018,06,17,13,15,27.90
2018,06,17,13,16,27.80
2018,06,17,13,17,27.80
2018,06,17,13,18,27.80
2018,06,17,13,19,27.70
2018,06,17,13,20,27.70
2018,06,17,13,21,27.70
2018,06,17,13,22,27.70
2018,06,17,13,23,27.60
2018,06,17,13,24,27.60
2018,06,17,13,25,27.60
2018,06,17,13,26,27.60
2018,06,17,13,27,27.60
2018,06,17,13,28,27.60
2018,06,17,13,29,27.60
2018,06,17,13,30,27.50
2018,06,17,13,31,27.50
2018,06,17,13,32,27.50
2018,06,17,13,33,27.50
2018,06,17,13,34,27.50
2018,06,17,13,35,27.50
2018,06,17,13,36,27.50
2018,06,17,13,37,27.50
2018,06,17,13,38,27.50
2018,06,17,13,39,27.50
2018,06,17,13,40,27.50
2018,06,17,13,41,27.50
2018,06,17,13,42,27.60
2018,06,17,13,43,27.60
2018,06,17,13,44,27.60
2018,06,17,13,45,27.60
2018,06,17,13,46,27.60
2018,06,17,13,47,27.70
2018,06,17,13,48,27.70
2018,06,17,13,49,27.70
2018,06,17,13,50,27.70
2018,06,17,13,51,27.70
2018,06,17,13,52,27.80
2018,06,17,13,53,27.80
2018,06,17,13,54,27.80
2018,06,17,13,55,27.90
2018,06,17,13,56,27.90
2018,06,17,13,57,27.90
2018,06,17,13,58,28.00
2018,06,17,13,59,28.00
2018,06,17,14,00,28.10
2018,06,17,14,01,28.10
2018,06,17,14,02,28.10
2018,06,17,14,03,28.10
2018,06,17,14,04,28.10
2018,06,17,14,05,28.20
2018,06,17,14,06,28.20
2018,06,17,14,07,28.30
2018,06,17,14,08,28.30
2018,06,17,14,09,28.30
2018,06,17,14,10,28.30
2018,06,17,14,11,28.30
2018,06,17,14,12,28.30
2018,06,17,14,13,28.30
2018,06,17,14,14,28.40
2018,06,17,14,15,28.40
2018,06,17,14,16,28.40
2018,06,17,14,17,28.50
2018,06,17,14,18,28.50
2018,06,17,14,19,28.60
2018,06,17,14,20,28.60
2018,06,17,14,21,28.70
2018,06,17,14,22,28.80
2018,06,17,14,23,28.90
2018,06,17,14,24,29.00
2018,06,17,14,25,29.00
2018,06,17,14,26,29.10
2018,06,17,14,27,29.20
2018,06,17,14,28,29.20
2018,06,17,14,29,29.30
2018,06,17,14,30,29.30
2018,06,17,14,31,29.30
2018,06,17,14,32,29.40
2018,06,17,14,33,29.40
2018,06,17,14,34,29.50
2018,06,17,14,35,29.50
2018,06,17,14,36,29.60
2018,06,17,14,37,29.60
2018,06,17,14,38,29.60
2018,06,17,14,39,29.60
2018,06,17,14,40,29.60
2018,06,17,14,41,29.60
2018,06,17,14,42,29.60
2018,06,17,14,43,29.60
2018,06,17,14,44,29.70
2018,06,17,14,45,29.70
2018,06,17,14,46,29.70
2018,06,17,14,47,29.70
2018,06,17,14,48,29.70
2018,06,17,14,49,29.70
2018,06,17,14,50,29.70
2018,06,17,14,51,29.60
2018,06,17,14,52,29.60
2018,06,17,14,53,29.50
2018,06,17,14,54,29.40
2018,06,17,14,55,29.30
2018,06,17,14,56,29.20
2018,06,17,14,57,29.10
2018,06,17,14,58,29.10
2018,06,17,14,59,29.10
2018,06,17,15,00,29.00
2018,06,17,15,01,29.00
2018,06,17,15,02,29.00
2018,06,17,15,03,29.10
2018,06,17,15,04,29.00
2018,06,17,15,05,29.10
2018,06,17,15,06,29.10
2018,06,17,15,07,29.10
2018,06,17,15,08,29.10
2018,06,17,15,09,29.10
2018,06,17,15,10,29.10
2018,06,17,15,11,29.10
2018,06,17,15,12,29.10
2018,06,17,15,13,29.10
2018,06,17,15,14,29.10
2018,06,17,15,15,29.10
2018,06,17,15,16,29.10
2018,06,17,15,17,29.10
2018,06,17,15,18,29.10
2018,06,17,15,19,29.10
2018,06,17,15,20,29.10
2018,06,17,15,21,29.10
2018,06,17,15,22,29.10
2018,06,17,15,23,29.20
2018,06,17,15,24,29.20
2018,06,17,15,25,29.20
2018,06,17,15,26,29.20
2018,06,17,15,27,29.20
2018,06,17,15,28,29.20
2018,06,17,15,29,29.20
2018,06,17,15,30,29.30
2018,06,17,15,31,29.30
2018,06,17,15,32,29.40
2018,06,17,15,33,29.40
2018,06,17,15,34,29.50
2018,06,17,15,35,29.60
2018,06,17,15,36,29.60
2018,06,17,15,37,29.70
2018,06,17,15,38,29.70
2018,06,17,15,39,29.80
2018,06,17,15,40,29.80
2018,06,17,15,41,29.80
2018,06,17,15,42,29.90
2018,06,17,15,43,29.90
2018,06,17,15,44,30.00
2018,06,17,15,45,30.00
2018,06,17,15,46,30.10
2018,06,17,15,47,30.10
2018,06,17,15,48,30.20
2018,06,17,15,49,30.20
2018,06,17,15,50,30.30
2018,06,17,15,51,30.30
2018,06,17,15,52,30.30
2018,06,17,15,53,30.40
2018,06,17,15,54,30.40
2018,06,17,15,55,30.40
2018,06,17,15,56,30.40
2018,06,17,15,57,30.40
2018,06,17,15,58,30.50
2018,06,17,15,59,30.50
2018,06,17,16,00,30.50
2018,06,17,16,01,30.50
2018,06,17,16,02,30.60
2018,06,17,16,03,30.60
2018,06,17,16,04,30.60
2018,06,17,16,05,30.60
2018,06,17,16,06,30.60
2018,06,17,16,07,30.70
2018,06,17,16,08,30.70
2018,06,17,16,09,30.70
2018,06,17,16,10,30.70
2018,06,17,16,11,30.80
2018,06,17,16,12,30.80
2018,06,17,16,13,30.80
2018,06,17,16,14,30.80
2018,06,17,16,15,30.80
2018,06,17,16,16,30.80
2018,06,17,16,17,30.80
2018,06,17,16,18,30.80
2018,06,17,16,19,30.80
2018,06,17,16,20,30.80
2018,06,17,16,21,30.80
2018,06,17,16,22,30.80
2018,06,17,16,23,30.80
2018,06,17,16,24,30.80
2018,06,17,16,25,30.80
2018,06,17,16,26,30.90
2018,06,17,16,27,30.90
2018,06,17,16,28,30.90
2018,06,17,16,29,30.90
2018,06,17,16,30,31.00
2018,06,17,16,31,31.00
2018,06,17,16,32,31.00
2018,06,17,16,33,31.00
2018,06,17,16,34,31.00
2018,06,17,16,35,31.10
2018,06,17,16,36,31.10
2018,06,17,16,37,31.00
2018,06,17,16,38,31.00
2018,06,17,16,39,31.00
2018,06,17,16,40,31.00
2018,06,17,16,41,31.10
2018,06,17,16,42,31.10
2018,06,17,16,43,31.10
2018,06,17,16,44,31.10
2018,06,17,16,45,31.00
2018,06,17,16,46,31.00
2018,06,17,16,47,31.00
2018,06,17,16,48,30.90
2018,06,17,16,49,30.90
2018,06,17,16,50,30.90
2018,06,17,16,51,30.90
2018,06,17,16,52,30.80
2018,06,17,16,53,30.80
2018,06,17,16,54,30.80
2018,06,17,16,55,30.80
2018,06,17,16,56,30.80
2018,06,17,16,57,30.80
2018,06,17,16,58,30.80
2018,06,17,16,59,30.80
2018,06,17,17,00,30.80
2018,06,17,17,01,30.80
2018,06,17,17,02,30.80
2018,06,17,17,03,30.80
2018,06,17,17,04,30.70
2018,06,17,17,05,30.70
2018,06,17,17,06,30.70
2018,06,17,17,07,30.60
2018,06,17,17,08,30.60
2018,06,17,17,09,30.50
2018,06,17,17,10,30.50
2018,06,17,17,11,30.50
2018,06,17,17,12,30.50
2018,06,17,17,13,30.50
2018,06,17,17,14,30.60
2018,06,17,17,15,30.60
2018,06,17,17,16,30.60
2018,06,17,17,17,30.60
2018,06,17,17,18,30.60
2018,06,17,17,19,30.70